Main page
METAR-TAF:

METAR-TAF

Airports :

Oil platform

Troll C, Norway

latitude: 60-53-09N, longitude: 3-36-35E, elevation: 20 m

Current weather observation

The report was made 31 minutes ago, at 01:50 UTC
Wind 34 kt from the Southwest
Temperature 9°C
Humidity 93%
Pressure 1010 hPa
Visibility 10 km or more

METAR: ENQC 210150Z AUTO 22034KT 9999NDV OVC007/// 09/08 Q1010 W///S5

Time: 03:21 (02:21 UTC)


TAF: missing

Weather observations and forecasts of more than 4000 airports (METAR and TAF reports).

The available stations are represented by yellow and red dots on the map.

Hover mouse over dot to see the name of the station.

Then click to see weather observations and forecasts.

To change the map : click on the green buttons with a black cross to zoom in, on the green button with a dash to zoom out, or on the green arrows for adjacent maps.


METAR-TAF: